Погода в Созополе

Болгария     42°25′02″N   27°41′46″E
темп.,
°C
ветер,
м/с
пор.,
м/с
влажн.,
%
обл.,
%
осадки,
мм/ч
давл.,
гПа
погр.,
м
16 июня, ср
ср1600:00+17з91092100 4.4 1008561
03:00+18зсз81484100 5.8 1008936
06:00+18ссз9118269 1.2 1007826
09:00+19ссз10127673 1.6 10081143
12:00+20с11137485 0.9 10091265
15:00+22ссв8106772 2.2 1009923
18:00+21ссв79737 0.5 1010865
21:00+20с68783 1.1 1012750
17 июня, чт
чт1700:00+19сз578190 0.0 1014338
03:00+18зсз458280 0.0 1014267
06:00+18з558799 0.0 1015258
09:00+20сз468093 0.2 1016529
12:00+21с467493 1.1 1016585
15:00+21вюв437514 2.1 1016210
18:00+22юв11705 0.3 101689
21:00+22зюз227413 0.3 101763
18 июня, пт
пт1800:00+21зсз4477100 0.0 1017134
03:00+20зсз458098 0.0 1016185
06:00+20з568187 0.0 1016198
09:00+20зсз5879100 0.0 1016515
12:00+20сз71086100 1.3 1016658
15:00+20сз798398 1.9 1015620
18:00+19з6893100 5.0 1014421
21:00+20з698774 11.1 1013530
19 июня, сб
сб1900:00+20зсз688673 0.8 1013540
03:00+20зсз578575 1.1 1012527
06:00+20зсз5787100 0.3 1012560
09:00+20сз579099 1.1 1012573
12:00+20ссз4684100 1.9 1013501
15:00+21всв128074 3.4 1012149
18:00+22ссз347786 1.4 1012586
21:00+21ссз558385 2.6 1012414
20 июня, вс
вс2000:00+20сз448585 0.2 1013324
03:00+19ссз338393 0.3 1013294
06:00+19сз338692 0.2 1013309
09:00+20с338536 0.2 1014386
12:00+21св458414 1.3 1014473
15:00+21всв348330 2.1 1013283
18:00+22в23796 0.1 1013216
21:00+22ссв228281 0.1 1013150